Time,TemperatureF,DewpointF,PressureIn,WindDirection,WindDirectionDegrees,WindSpeedMPH,WindSpeedGustMPH,Humidity,HourlyPrecipIn,Conditions,Clouds,dailyrainin,SoftwareType,DateUTC
2013-06-20 01:00:00,37.0,-99.9,-100.00,East,95,3.0,6.0,-999,0.00,,,-99.99,,2013-06-20 07:00:00,
2013-06-20 01:34:00,37.0,-99.9,-100.00,East,95,3.0,6.0,-999,0.00,,,-99.99,,2013-06-20 07:34:00,
2013-06-20 01:44:00,37.0,-99.9,-100.00,East,95,3.0,6.0,-999,0.00,,,-99.99,,2013-06-20 07:44:00,
2013-06-20 01:53:00,37.0,-99.9,-100.00,East,95,3.0,6.0,-999,0.00,,,-99.99,,2013-06-20 07:53:00,
2013-06-20 02:00:00,35.0,-99.9,-100.00,East,94,3.0,7.0,-999,0.00,,,-99.99,,2013-06-20 08:00:00,
2013-06-20 02:34:00,35.0,-99.9,-100.00,East,94,3.0,7.0,-999,0.00,,,-99.99,,2013-06-20 08:34:00,
2013-06-20 02:43:00,35.0,-99.9,-100.00,East,94,3.0,7.0,-999,0.00,,,-99.99,,2013-06-20 08:43:00,
2013-06-20 02:53:00,35.0,-99.9,-100.00,East,94,3.0,7.0,-999,0.00,,,-99.99,,2013-06-20 08:53:00,
2013-06-20 03:00:00,34.0,-99.9,-100.00,East,93,3.0,6.0,-999,0.00,,,-99.99,,2013-06-20 09:00:00,
2013-06-20 03:34:00,34.0,-99.9,-100.00,East,93,3.0,6.0,-999,0.00,,,-99.99,,2013-06-20 09:34:00,
2013-06-20 03:43:00,34.0,-99.9,-100.00,East,93,3.0,6.0,-999,0.00,,,-99.99,,2013-06-20 09:43:00,
2013-06-20 03:52:00,34.0,-99.9,-100.00,East,93,3.0,6.0,-999,0.00,,,-99.99,,2013-06-20 09:52:00,
2013-06-20 04:00:00,34.0,-99.9,-100.00,East,93,3.0,6.0,-999,0.00,,,-99.99,,2013-06-20 10:00:00,
2013-06-20 04:34:00,34.0,-99.9,-100.00,East,93,3.0,6.0,-999,0.00,,,-99.99,,2013-06-20 10:34:00,
2013-06-20 04:44:00,34.0,-99.9,-100.00,East,93,3.0,6.0,-999,0.00,,,-99.99,,2013-06-20 10:44:00,
2013-06-20 04:53:00,34.0,-99.9,-100.00,East,93,3.0,6.0,-999,0.00,,,-99.99,,2013-06-20 10:53:00,
2013-06-20 05:00:00,33.0,-99.9,-100.00,East,92,4.0,6.0,-999,0.00,,,-99.99,,2013-06-20 11:00:00,
2013-06-20 05:34:00,33.0,-99.9,-100.00,East,92,4.0,6.0,-999,0.00,,,-99.99,,2013-06-20 11:34:00,
2013-06-20 05:43:00,33.0,-99.9,-100.00,East,92,4.0,6.0,-999,0.00,,,-99.99,,2013-06-20 11:43:00,
2013-06-20 05:53:00,33.0,-99.9,-100.00,East,92,4.0,6.0,-999,0.00,,,-99.99,,2013-06-20 11:53:00,
2013-06-20 06:00:00,33.0,-99.9,-100.00,East,91,4.0,7.0,-999,0.00,,,-99.99,,2013-06-20 12:00:00,
2013-06-20 06:34:00,33.0,-99.9,-100.00,East,91,4.0,7.0,-999,0.00,,,-99.99,,2013-06-20 12:34:00,
2013-06-20 06:43:00,33.0,-99.9,-100.00,East,91,4.0,7.0,-999,0.00,,,-99.99,,2013-06-20 12:43:00,
2013-06-20 06:53:00,33.0,-99.9,-100.00,East,91,4.0,7.0,-999,0.00,,,-99.99,,2013-06-20 12:53:00,
2013-06-20 07:00:00,34.0,-99.9,-100.00,East,87,5.0,7.0,-999,0.00,,,-99.99,,2013-06-20 13:00:00,
2013-06-20 07:43:00,34.0,-99.9,-100.00,East,87,5.0,7.0,-999,0.00,,,-99.99,,2013-06-20 13:43:00,
2013-06-20 07:53:00,34.0,-99.9,-100.00,East,87,5.0,7.0,-999,0.00,,,-99.99,,2013-06-20 13:53:00,
2013-06-20 08:00:00,41.0,-99.9,-100.00,East,84,5.0,9.0,-999,0.00,,,-99.99,,2013-06-20 14:00:00,
2013-06-20 08:33:00,41.0,-99.9,-100.00,East,84,5.0,9.0,-999,0.00,,,-99.99,,2013-06-20 14:33:00,
2013-06-20 08:42:00,41.0,-99.9,-100.00,East,84,5.0,9.0,-999,0.00,,,-99.99,,2013-06-20 14:42:00,
2013-06-20 08:53:00,41.0,-99.9,-100.00,East,84,5.0,9.0,-999,0.00,,,-99.99,,2013-06-20 14:53:00,
2013-06-20 09:00:00,50.0,-99.9,-100.00,WNW,302,3.0,8.0,-999,0.00,,,-99.99,,2013-06-20 15:00:00,
2013-06-20 09:43:00,50.0,-99.9,-100.00,WNW,302,3.0,8.0,-999,0.00,,,-99.99,,2013-06-20 15:43:00,
2013-06-20 09:53:00,50.0,-99.9,-100.00,WNW,302,3.0,8.0,-999,0.00,,,-99.99,,2013-06-20 15:53:00,
2013-06-20 10:00:00,52.0,-99.9,-100.00,SW,230,5.0,10.0,-999,0.00,,,-99.99,,2013-06-20 16:00:00,
2013-06-20 10:33:00,52.0,-99.9,-100.00,SW,230,5.0,10.0,-999,0.00,,,-99.99,,2013-06-20 16:33:00,
2013-06-20 10:43:00,52.0,-99.9,-100.00,SW,230,5.0,10.0,-999,0.00,,,-99.99,,2013-06-20 16:43:00,
2013-06-20 10:53:00,52.0,-99.9,-100.00,SW,230,5.0,10.0,-999,0.00,,,-99.99,,2013-06-20 16:53:00,
2013-06-20 11:00:00,55.0,-99.9,-100.00,SW,222,5.0,12.0,-999,0.00,,,-99.99,,2013-06-20 17:00:00,
2013-06-20 11:33:00,55.0,-99.9,-100.00,SW,222,5.0,12.0,-999,0.00,,,-99.99,,2013-06-20 17:33:00,
2013-06-20 11:43:00,55.0,-99.9,-100.00,SW,222,5.0,12.0,-999,0.00,,,-99.99,,2013-06-20 17:43:00,
2013-06-20 11:53:00,55.0,-99.9,-100.00,SW,222,5.0,12.0,-999,0.00,,,-99.99,,2013-06-20 17:53:00,
2013-06-20 12:00:00,53.0,-99.9,-100.00,SSW,210,6.0,14.0,-999,0.00,,,-99.99,,2013-06-20 18:00:00,
2013-06-20 12:34:00,53.0,-99.9,-100.00,SSW,210,6.0,14.0,-999,0.00,,,-99.99,,2013-06-20 18:34:00,
2013-06-20 12:43:00,53.0,-99.9,-100.00,SSW,210,6.0,14.0,-999,0.00,,,-99.99,,2013-06-20 18:43:00,
2013-06-20 12:53:00,53.0,-99.9,-100.00,SSW,210,6.0,14.0,-999,0.00,,,-99.99,,2013-06-20 18:53:00,
2013-06-20 13:00:00,54.0,-99.9,-100.00,SSW,199,6.0,15.0,-999,0.00,,,-99.99,,2013-06-20 19:00:00,
2013-06-20 13:34:00,54.0,-99.9,-100.00,SSW,199,6.0,15.0,-999,0.00,,,-99.99,,2013-06-20 19:34:00,
2013-06-20 13:44:00,54.0,-99.9,-100.00,SSW,199,6.0,15.0,-999,0.00,,,-99.99,,2013-06-20 19:44:00,
2013-06-20 13:53:00,54.0,-99.9,-100.00,SSW,199,6.0,15.0,-999,0.00,,,-99.99,,2013-06-20 19:53:00,
2013-06-20 14:00:00,56.0,-99.9,-100.00,SSW,208,7.0,14.0,-999,0.00,,,-99.99,,2013-06-20 20:00:00,
2013-06-20 14:33:00,56.0,-99.9,-100.00,SSW,208,7.0,14.0,-999,0.00,,,-99.99,,2013-06-20 20:33:00,
2013-06-20 14:43:00,56.0,-99.9,-100.00,SSW,208,7.0,14.0,-999,0.00,,,-99.99,,2013-06-20 20:43:00,
2013-06-20 14:53:00,56.0,-99.9,-100.00,SSW,208,7.0,14.0,-999,0.00,,,-99.99,,2013-06-20 20:53:00,